EW6438 Weather Reports


Display with metric or nautical units.
time (UTC)temp
F
wind
direction
speed
MPH
gust
MPH
rain 1hr
in
rain 24hr
in
rain mn
in
humidity
%
barometer
mb
20260504050506 40 315 4.0 10.0 0.00 0.14 0.00 94 1007.9
20260504050020 39 5 2.0 10.0 0.00 0.14 0.00 94 1007.9
20260504045507 39 263 3.0 10.0 0.00 0.14 0.00 94 1008.0
20260504045007 39 309 5.0 10.0 0.00 0.14 0.00 94 1007.9
20260504044519 39 285 3.0 7.0 0.00 0.14 0.00 94 1007.9
20260504044007 39 244 1.0 6.0 0.01 0.14 0.00 94 1007.9
20260504043511 39 225 2.0 6.0 0.01 0.14 0.00 94 1007.9
20260504043016 39 253 2.0 6.0 0.01 0.14 0.00 94 1007.9
20260504042508 39 302 2.0 6.0 0.01 0.14 0.00 94 1007.9
20260504042011 38 286 2.0 6.0 0.02 0.14 0.00 94 1007.8
20260504041514 38 17 0.0 5.0 0.02 0.14 0.00 94 1007.8
20260504041003 38 275 2.0 7.0 0.03 0.14 0.00 93 1007.8
20260504040504 38 215 2.0 7.0 0.03 0.14 0.00 93 1007.8
20260504040018 38 249 0.0 8.0 0.04 0.14 0.00 94 1007.9
20260504035511 38 253 3.0 8.0 0.05 0.14 0.14 93 1007.8
20260504035013 38 271 2.0 5.0 0.05 0.14 0.14 93 1007.8
20260504034526 38 259 1.0 7.0 0.06 0.14 0.14 93 1007.8
20260504034010 38 229 2.0 7.0 0.06 0.13 0.13 93 1007.9
20260504033504 38 243 2.0 6.0 0.07 0.13 0.13 93 1007.8
20260504033025 38 278 2.0 8.0 0.08 0.13 0.13 93 1007.9
20260504032508 38 257 4.0 8.0 0.08 0.13 0.13 93 1008.1
20260504032013 38 332 3.0 9.0 0.07 0.12 0.12 92 1008.1
20260504031524 38 268 3.0 9.0 0.08 0.12 0.12 92 1008.2
20260504031007 38 200 3.0 9.0 0.07 0.11 0.11 92 1008.2
20260504030511 38 270 3.0 11.0 0.08 0.11 0.11 91 1008.3
20260504030017 38 259 2.0 11.0 0.07 0.10 0.10 91 1008.3
20260504025504 38 261 3.0 9.0 0.07 0.09 0.09 91 1008.4
20260504025007 38 286 3.0 9.0 0.07 0.09 0.09 91 1008.5
20260504024523 38 325 1.0 10.0 0.06 0.08 0.08 91 1008.4
20260504024008 38 280 3.0 17.0 0.06 0.07 0.07 90 1008.5
20260504023505 38 279 5.0 17.0 0.05 0.06 0.06 90 1008.5
20260504023027 38 300 1.0 7.0 0.04 0.05 0.05 90 1008.5
20260504022508 38 323 2.0 12.0 0.04 0.05 0.05 90 1008.5
20260504022006 38 281 2.0 12.0 0.04 0.05 0.05 90 1008.5
20260504021528 38 229 1.0 8.0 0.03 0.04 0.04 89 1008.6
20260504021009 38 211 2.0 8.0 0.03 0.04 0.04 89 1008.7
20260504020507 38 325 3.0 8.0 0.02 0.03 0.03 88 1008.8
20260504020028 38 288 2.0 4.0 0.02 0.03 0.03 87 1008.7
20260504015508 38 257 2.0 4.0 0.01 0.02 0.02 87 1008.7
20260504015007 38 261 1.0 4.0 0.01 0.02 0.02 85 1008.7
20260504014538 39 236 0.0 4.0 0.01 0.02 0.02 85 1008.6
20260504014004 39 259 1.0 8.0 0.00 0.01 0.01 84 1008.8
20260504013510 39 281 3.0 9.0 0.00 0.01 0.01 83 1008.9
20260504013023 39 296 2.0 13.0 0.00 0.01 0.01 81 1009.0
20260504012515 40 321 5.0 13.0 0.00 0.01 0.01 78 1008.9
20260504012010 40 288 7.0 11.0 0.00 0.01 0.01 75 1008.8
20260504011506 41 326 4.0 10.0 0.00 0.01 0.01 76 1008.8
20260504011004 41 322 3.0 11.0 0.00 0.01 0.01 73 1008.7
20260504010505 41 260 5.0 11.0 0.00 0.01 0.01 72 1008.6
20260504010013 41 276 4.0 9.0 0.00 0.01 0.01 67 1008.6
20260504005505 41 325 2.0 12.0 0.00 0.01 0.01 66 1008.6
20260504005003 42 241 5.0 12.0 0.00 0.01 0.01 67 1008.6
20260504004512 42 283 3.0 14.0 0.00 0.01 0.01 65 1008.6
20260504004004 42 294 6.0 14.0 0.00 0.01 0.01 66 1008.6
20260504003507 42 283 7.0 15.0 0.00 0.01 0.01 64 1008.5
20260504003007 42 306 7.0 15.0 0.00 0.01 0.01 62 1008.5
20260504002504 42 286 5.0 13.0 0.00 0.01 0.01 60 1008.6
20260504002006 43 332 7.0 13.0 0.00 0.01 0.01 60 1008.5
20260504001503 43 267 5.0 13.0 0.00 0.01 0.01 57 1008.5
20260504001004 43 14 6.0 12.0 0.00 0.01 0.01 57 1008.4
20260504000504 43 284 7.0 12.0 0.00 0.01 0.01 55 1008.3
20260504000017 43 289 5.0 10.0 0.00 0.01 0.01 54 1008.3
20260503235505 43 284 5.0 10.0 0.00 0.01 0.01 53 1008.2
20260503235003 43 262 2.0 7.0 0.00 0.01 0.01 54 1008.3
20260503234509 43 301 3.0 7.0 0.00 0.01 0.01 52 1008.3
20260503234004 43 278 2.0 6.0 0.00 0.01 0.01 50 1008.2
20260503233504 43 304 3.0 7.0 0.00 0.01 0.01 51 1008.2
20260503233019 43 294 2.0 9.0 0.00 0.01 0.01 50 1008.1
20260503232505 43 294 3.0 9.0 0.00 0.01 0.01 51 1008.1
20260503232004 43 291 4.0 11.0 0.00 0.01 0.01 50 1008.1
20260503231512 43 272 5.0 11.0 0.00 0.01 0.01 50 1008.0
20260503231005 43 282 3.0 10.0 0.00 0.01 0.01 52 1008.1
20260503230509 43 331 4.0 11.0 0.00 0.01 0.01 51 1008.1
20260503230014 43 333 4.0 12.0 0.00 0.01 0.01 48 1008.1
20260503225506 43 317 4.0 14.0 0.00 0.01 0.01 48 1008.1
20260503225003 43 311 8.0 14.0 0.00 0.01 0.01 49 1008.1
20260503224504 44 292 3.0 16.0 0.00 0.01 0.01 46 1008.0
20260503224007 44 302 4.0 16.0 0.00 0.01 0.01 47 1008.1
20260503223504 45 331 9.0 16.0 0.00 0.01 0.01 45 1008.0
20260503223013 45 308 5.0 17.0 0.00 0.01 0.01 44 1008.0
20260503222504 45 298 7.0 17.0 0.00 0.01 0.01 44 1007.9
20260503222004 45 332 7.0 12.0 0.00 0.01 0.01 44 1007.9
20260503221519 45 274 6.0 18.0 0.00 0.01 0.01 44 1008.0
20260503221003 45 266 6.0 18.0 0.00 0.01 0.01 44 1007.9
20260503220508 45 273 6.0 16.0 0.00 0.01 0.01 44 1007.9
20260503220021 45 166 6.0 16.0 0.00 0.01 0.01 43 1007.9
20260503215510 46 274 5.0 14.0 0.00 0.01 0.01 44 1007.9
20260503215002 46 323 7.0 16.0 0.00 0.01 0.01 43 1008.0
20260503214518 46 327 8.0 21.0 0.00 0.01 0.01 44 1007.9
20260503214003 46 228 4.0 21.0 0.00 0.01 0.01 43 1007.8
20260503213509 46 300 8.0 17.0 0.00 0.01 0.01 45 1007.9
20260503213012 45 310 6.0 17.0 0.00 0.01 0.01 43 1007.9
20260503212504 46 27 8.0 14.0 0.00 0.01 0.01 44 1008.0
20260503212005 46 345 3.0 15.0 0.00 0.01 0.01 42 1007.9
20260503211509 46 279 4.0 15.0 0.00 0.01 0.01 41 1007.9
20260503211004 46 329 6.0 20.0 0.00 0.01 0.01 42 1007.9
20260503210507 46 5 8.0 20.0 0.00 0.01 0.01 42 1007.8
20260503210039 46 280 4.0 16.0 0.00 0.01 0.01 39 1007.6
20260503205503 46 261 5.0 16.0 0.00 0.01 0.01 40 1007.7
20260503205007 46 276 8.0 16.0 0.00 0.01 0.01 39 1007.8
20260503204525 46 292 7.0 17.0 0.00 0.01 0.01 37 1007.7
20260503204003 46 261 9.0 23.0 0.00 0.01 0.01 40 1007.7
20260503203506 46 226 7.0 22.0 0.00 0.01 0.01 36 1007.8
20260503203014 47 290 4.0 22.0 0.00 0.01 0.01 34 1007.8
20260503202504 47 290 6.0 15.0 0.00 0.01 0.01 38 1007.7
20260503202004 47 277 6.0 19.0 0.00 0.01 0.01 37 1007.7
20260503201513 46 261 4.0 20.0 0.00 0.01 0.01 38 1007.6
20260503201004 46 264 8.0 20.0 0.00 0.01 0.01 38 1007.7
20260503200509 46 259 9.0 17.0 0.00 0.01 0.01 44 1007.7
20260503200017 46 304 7.0 15.0 0.00 0.01 0.01 42 1007.7
20260503195509 46 303 9.0 16.0 0.00 0.01 0.01 42 1007.6
20260503195009 45 307 7.0 16.0 0.00 0.01 0.01 38 1007.7
20260503194512 46 264 7.0 15.0 0.00 0.01 0.01 41 1007.7
20260503194007 46 287 6.0 20.0 0.00 0.01 0.01 41 1007.9
20260503193508 46 296 8.0 20.0 0.00 0.01 0.01 41 1007.9
20260503193025 45 261 7.0 16.0 0.00 0.01 0.01 44 1007.9
20260503192504 45 309 4.0 15.0 0.00 0.01 0.01 41 1008.1
20260503192005 46 288 4.0 15.0 0.00 0.01 0.01 41 1008.2
20260503191510 45 288 6.0 16.0 0.00 0.01 0.01 43 1008.1
20260503191003 45 295 5.0 16.0 0.00 0.01 0.01 41 1008.2
20260503190506 45 325 6.0 16.0 0.00 0.01 0.01 46 1008.4
20260503190016 44 282 7.0 19.0 0.00 0.01 0.01 46 1008.5
20260503185504 44 317 6.0 19.0 0.00 0.01 0.01 46 1008.5
20260503185004 44 338 8.0 18.0 0.00 0.01 0.01 51 1008.5
20260503184527 44 274 5.0 18.0 0.00 0.01 0.01 48 1008.6
20260503184011 43 311 6.0 18.0 0.00 0.01 0.01 45 1008.5
20260503183511 43 316 8.0 15.0 0.00 0.01 0.01 46 1008.6
20260503183021 44 324 6.0 20.0 0.00 0.01 0.01 47 1008.6
20260503182507 43 327 7.0 20.0 0.00 0.01 0.01 44 1008.6
20260503182010 44 340 6.0 15.0 0.00 0.01 0.01 47 1008.7
20260503181514 44 298 6.0 15.0 0.00 0.01 0.01 45 1008.8
20260503181007 44 327 5.0 14.0 0.00 0.01 0.01 47 1008.8
20260503180504 43 319 5.0 13.0 0.00 0.01 0.01 49 1008.8
20260503180014 43 302 3.0 11.0 0.00 0.01 0.01 48 1008.8
20260503175503 42 326 4.0 21.0 0.00 0.01 0.01 50 1008.8
20260503175003 42 277 9.0 21.0 0.00 0.01 0.01 48 1008.9
20260503174517 43 296 6.0 13.0 0.00 0.01 0.01 50 1008.8
20260503174003 42 334 3.0 14.0 0.00 0.01 0.01 51 1008.8
20260503173505 41 251 6.0 15.0 0.00 0.02 0.01 52 1008.9
20260503173024 41 316 3.0 15.0 0.00 0.02 0.01 53 1008.9
20260503172509 41 315 5.0 12.0 0.00 0.02 0.01 53 1009.0
20260503172010 40 292 6.0 12.0 0.00 0.02 0.01 53 1009.0
20260503171523 40 281 6.0 12.0 0.00 0.02 0.01 52 1009.0
20260503171008 41 281 3.0 19.0 0.00 0.02 0.01 52 1009.0
20260503170504 40 316 5.0 19.0 0.00 0.02 0.01 54 1009.1
20260503151003 39 316 5.0 15.0 0.00 0.09 0.01 59 1009.8
20260503150503 39 285 4.0 15.0 0.00 0.09 0.01 57 1009.9
20260503131004 36 270 3.0 10.0 0.01 0.09 0.01 75 1010.1
20260503130503 36 338 4.0 9.0 0.01 0.09 0.01 73 1010.1
20260503110510 32 299 3.0 7.0 0.00 0.08 0.00 86 1009.7
20260503090505 32 303 2.0 8.0 0.00 0.08 0.00 90 1009.4
20260503081542 32 294 1.0 5.0 0.00 0.09 0.00 91 1009.6
20260503081007 32 308 1.0 4.0 0.00 0.09 0.00 91 1009.5
20260503080510 32 323 1.0 4.0 0.00 0.09 0.00 91 1009.5
20260503072508 32 295 1.0 3.0 0.00 0.09 0.00 90 1009.7
20260503072006 31 290 0.0 3.0 0.00 0.09 0.00 90 1009.7
20260503071534 31 320 0.0 3.0 0.00 0.09 0.00 90 1009.7
20260503071013 32 299 1.0 4.0 0.00 0.09 0.00 90 1009.8
20260503070507 32 319 0.0 4.0 0.00 0.10 0.00 90 1009.8